Time,TemperatureF,DewpointF,PressureIn,WindDirection,WindDirectionDegrees,WindSpeedMPH,WindSpeedGustMPH,Humidity,HourlyPrecipIn,Conditions,Clouds,dailyrainin,SolarRadiationWatts/m^2,SoftwareType,DateUTC
2013-03-04 00:00:00,64.0,24.4,29.82,WSW,242,1.0,2.0,22,0.00,,,0.00,0,LWC V2.00 B727,2013-03-04 07:00:00,
2013-03-04 00:05:00,63.8,24.2,29.82,WSW,241,0.0,2.0,22,0.00,,,0.00,0,LWC V2.00 B727,2013-03-04 07:05:00,
2013-03-04 00:10:00,63.6,24.1,29.82,WSW,241,0.0,1.0,22,0.00,,,0.00,0,LWC V2.00 B727,2013-03-04 07:10:00,
2013-03-04 00:15:00,63.3,24.9,29.82,WSW,240,0.0,0.0,23,0.00,,,0.00,0,LWC V2.00 B727,2013-03-04 07:15:00,
2013-03-04 00:20:00,63.2,24.8,29.81,WSW,240,0.0,0.0,23,0.00,,,0.00,0,LWC V2.00 B727,2013-03-04 07:20:00,
2013-03-04 00:25:00,62.9,25.6,29.81,WSW,240,0.0,2.0,24,0.00,,,0.00,0,LWC V2.00 B727,2013-03-04 07:25:00,
2013-03-04 00:30:00,62.3,25.1,29.82,WSW,240,0.0,1.0,24,0.00,,,0.00,0,LWC V2.00 B727,2013-03-04 07:30:00,
2013-03-04 00:35:00,62.7,25.4,29.82,WSW,240,0.0,0.0,24,0.00,,,0.00,0,LWC V2.00 B727,2013-03-04 07:35:00,
2013-03-04 00:40:00,62.8,25.5,29.81,WSW,240,0.0,0.0,24,0.00,,,0.00,0,LWC V2.00 B727,2013-03-04 07:40:00,
2013-03-04 00:45:00,62.9,23.5,29.81,WSW,240,0.0,0.0,22,0.00,,,0.00,0,LWC V2.00 B727,2013-03-04 07:45:00,
2013-03-04 00:50:00,63.2,23.7,29.81,WSW,240,0.0,0.0,22,0.00,,,0.00,0,LWC V2.00 B727,2013-03-04 07:50:00,
2013-03-04 00:55:00,63.3,23.8,29.81,WSW,240,0.0,0.0,22,0.00,,,0.00,0,LWC V2.00 B727,2013-03-04 07:55:00,
2013-03-04 01:00:00,63.4,23.9,29.81,WSW,240,0.0,1.0,22,0.00,,,0.00,0,LWC V2.00 B727,2013-03-04 08:00:00,
2013-03-04 01:05:00,63.7,23.0,29.81,WSW,240,0.0,0.0,21,0.00,,,0.00,0,LWC V2.00 B727,2013-03-04 08:05:00,
2013-03-04 01:10:00,64.0,23.3,29.81,WSW,240,0.0,1.0,21,0.00,,,0.00,0,LWC V2.00 B727,2013-03-04 08:10:00,
2013-03-04 01:15:00,63.9,23.2,29.81,WSW,240,0.0,0.0,21,0.00,,,0.00,0,LWC V2.00 B727,2013-03-04 08:15:00,
2013-03-04 01:20:00,63.8,23.1,29.81,WSW,240,0.0,0.0,21,0.00,,,0.00,0,LWC V2.00 B727,2013-03-04 08:20:00,
2013-03-04 01:25:00,63.8,22.0,29.81,WSW,240,0.0,1.0,20,0.00,,,0.00,0,LWC V2.00 B727,2013-03-04 08:25:00,
2013-03-04 01:30:00,64.3,21.2,29.80,SW,219,0.0,4.0,19,0.00,,,0.00,0,LWC V2.00 B727,2013-03-04 08:30:00,
2013-03-04 01:35:00,64.7,21.5,29.80,SW,227,0.0,2.0,19,0.00,,,0.00,0,LWC V2.00 B727,2013-03-04 08:35:00,
2013-03-04 01:40:00,64.7,21.5,29.81,SW,234,0.0,1.0,19,0.00,,,0.00,0,LWC V2.00 B727,2013-03-04 08:40:00,
2013-03-04 01:45:00,63.7,23.0,29.81,SW,234,0.0,0.0,21,0.00,,,0.00,0,LWC V2.00 B727,2013-03-04 08:45:00,
2013-03-04 01:50:00,63.5,21.7,29.81,SW,234,0.0,0.0,20,0.00,,,0.00,0,LWC V2.00 B727,2013-03-04 08:50:00,
2013-03-04 01:55:00,64.0,22.1,29.81,SW,234,0.0,0.0,20,0.00,,,0.00,0,LWC V2.00 B727,2013-03-04 08:55:00,
2013-03-04 02:00:00,64.0,20.9,29.81,SW,234,0.0,0.0,19,0.00,,,0.00,0,LWC V2.00 B727,2013-03-04 09:00:00,
2013-03-04 02:05:00,64.1,22.2,29.80,SW,234,0.0,0.0,20,0.00,,,0.00,0,LWC V2.00 B727,2013-03-04 09:05:00,
2013-03-04 02:10:00,63.7,21.9,29.80,SW,234,0.0,1.0,20,0.00,,,0.00,0,LWC V2.00 B727,2013-03-04 09:10:00,
2013-03-04 02:15:00,63.0,23.6,29.80,SW,232,0.0,1.0,22,0.00,,,0.00,0,LWC V2.00 B727,2013-03-04 09:15:00,
2013-03-04 02:20:00,62.6,23.2,29.80,SW,232,0.0,0.0,22,0.00,,,0.00,0,LWC V2.00 B727,2013-03-04 09:20:00,
2013-03-04 02:25:00,62.5,23.1,29.80,SW,232,1.0,2.0,22,0.00,,,0.00,0,LWC V2.00 B727,2013-03-04 09:25:00,
2013-03-04 02:30:00,62.9,23.5,29.80,South,186,0.0,0.0,22,0.00,,,0.00,0,LWC V2.00 B727,2013-03-04 09:30:00,
2013-03-04 02:35:00,63.4,21.6,29.79,South,186,1.0,1.0,20,0.00,,,0.00,0,LWC V2.00 B727,2013-03-04 09:35:00,
2013-03-04 02:40:00,63.9,20.8,29.79,South,186,1.0,3.0,19,0.00,,,0.00,0,LWC V2.00 B727,2013-03-04 09:40:00,
2013-03-04 02:45:00,64.1,21.0,29.79,South,186,0.0,0.0,19,0.00,,,0.00,0,LWC V2.00 B727,2013-03-04 09:45:00,
2013-03-04 02:50:00,64.2,22.3,29.79,South,186,0.0,0.0,20,0.00,,,0.00,0,LWC V2.00 B727,2013-03-04 09:50:00,
2013-03-04 02:55:00,63.9,22.0,29.78,South,186,1.0,3.0,20,0.00,,,0.00,0,LWC V2.00 B727,2013-03-04 09:55:00,
2013-03-04 03:00:00,63.8,20.8,29.78,South,186,0.0,1.0,19,0.00,,,0.00,0,LWC V2.00 B727,2013-03-04 10:00:00,
2013-03-04 03:05:00,64.3,19.9,29.78,South,186,0.0,1.0,18,0.00,,,0.00,0,LWC V2.00 B727,2013-03-04 10:05:00,
2013-03-04 03:10:00,64.2,19.8,29.78,South,188,1.0,3.0,18,0.00,,,0.00,0,LWC V2.00 B727,2013-03-04 10:10:00,
2013-03-04 03:15:00,64.4,20.0,29.78,SSW,202,2.0,4.0,18,0.00,,,0.00,0,LWC V2.00 B727,2013-03-04 10:15:00,
2013-03-04 03:20:00,64.5,18.7,29.77,SSW,204,3.0,3.0,17,0.00,,,0.00,0,LWC V2.00 B727,2013-03-04 10:20:00,
2013-03-04 03:25:00,64.1,19.7,29.77,SSW,207,1.0,4.0,18,0.00,,,0.00,0,LWC V2.00 B727,2013-03-04 10:25:00,
2013-03-04 03:30:00,63.9,20.8,29.78,SSW,207,3.0,4.0,19,0.00,,,0.00,0,LWC V2.00 B727,2013-03-04 10:30:00,
2013-03-04 03:35:00,63.6,20.6,29.78,SSW,209,2.0,3.0,19,0.00,,,0.00,0,LWC V2.00 B727,2013-03-04 10:35:00,
2013-03-04 03:40:00,63.1,22.5,29.78,SSW,209,0.0,3.0,21,0.00,,,0.00,0,LWC V2.00 B727,2013-03-04 10:40:00,
2013-03-04 03:45:00,63.1,21.4,29.78,SSW,213,0.0,5.0,20,0.00,,,0.00,0,LWC V2.00 B727,2013-03-04 10:45:00,
2013-03-04 03:50:00,62.1,22.8,29.77,SSW,200,0.0,1.0,22,0.00,,,0.00,0,LWC V2.00 B727,2013-03-04 10:50:00,
2013-03-04 03:55:00,62.7,19.9,29.77,SSW,198,1.0,5.0,19,0.00,,,0.00,0,LWC V2.00 B727,2013-03-04 10:55:00,
2013-03-04 04:00:00,63.5,19.2,29.77,SSW,201,0.0,6.0,18,0.00,,,0.00,0,LWC V2.00 B727,2013-03-04 11:00:00,
2013-03-04 04:05:00,63.8,19.5,29.77,SSW,205,2.0,4.0,18,0.00,,,0.00,0,LWC V2.00 B727,2013-03-04 11:05:00,
2013-03-04 04:10:00,63.5,19.2,29.77,SSW,209,1.0,3.0,18,0.00,,,0.00,0,LWC V2.00 B727,2013-03-04 11:10:00,
2013-03-04 04:15:00,63.0,20.1,29.77,SSW,207,3.0,5.0,19,0.00,,,0.00,0,LWC V2.00 B727,2013-03-04 11:15:00,
2013-03-04 04:20:00,62.9,20.0,29.77,SSW,207,0.0,5.0,19,0.00,,,0.00,0,LWC V2.00 B727,2013-03-04 11:20:00,
2013-03-04 04:25:00,63.0,18.8,29.77,SSW,210,2.0,6.0,18,0.00,,,0.00,0,LWC V2.00 B727,2013-03-04 11:25:00,
2013-03-04 04:30:00,63.2,19.0,29.77,SSW,212,4.0,5.0,18,0.00,,,0.00,0,LWC V2.00 B727,2013-03-04 11:30:00,
2013-03-04 04:35:00,63.4,17.8,29.77,SSW,206,2.0,5.0,17,0.00,,,0.00,0,LWC V2.00 B727,2013-03-04 11:35:00,
2013-03-04 04:40:00,63.6,18.0,29.77,SW,217,0.0,4.0,17,0.00,,,0.00,0,LWC V2.00 B727,2013-03-04 11:40:00,
2013-03-04 04:45:00,63.7,18.1,29.77,SSW,203,3.0,7.0,17,0.00,,,0.00,0,LWC V2.00 B727,2013-03-04 11:45:00,
2013-03-04 04:50:00,63.6,18.0,29.77,SW,221,3.0,5.0,17,0.00,,,0.00,0,LWC V2.00 B727,2013-03-04 11:50:00,
2013-03-04 04:55:00,63.3,19.1,29.77,SW,217,0.0,3.0,18,0.00,,,0.00,0,LWC V2.00 B727,2013-03-04 11:55:00,
2013-03-04 05:00:00,62.2,21.8,29.78,NNW,346,2.0,5.0,21,0.00,,,0.00,0,LWC V2.00 B727,2013-03-04 12:00:00,
2013-03-04 05:05:00,59.9,24.0,29.78,North,350,0.0,1.0,25,0.00,,,0.00,0,LWC V2.00 B727,2013-03-04 12:05:00,
2013-03-04 05:10:00,59.3,21.5,29.78,North,350,0.0,2.0,23,0.00,,,0.00,0,LWC V2.00 B727,2013-03-04 12:10:00,
2013-03-04 05:15:00,59.7,21.9,29.78,North,350,0.0,0.0,23,0.00,,,0.00,0,LWC V2.00 B727,2013-03-04 12:15:00,
2013-03-04 05:20:00,59.7,21.9,29.78,North,350,0.0,0.0,23,0.00,,,0.00,0,LWC V2.00 B727,2013-03-04 12:20:00,
2013-03-04 05:25:00,60.0,21.1,29.79,NW,313,0.0,1.0,22,0.00,,,0.00,0,LWC V2.00 B727,2013-03-04 12:25:00,
2013-03-04 05:30:00,60.5,21.5,29.79,NW,313,2.0,3.0,22,0.00,,,0.00,0,LWC V2.00 B727,2013-03-04 12:30:00,
2013-03-04 05:35:00,60.7,20.5,29.79,NW,313,0.0,0.0,21,0.00,,,0.00,0,LWC V2.00 B727,2013-03-04 12:35:00,
2013-03-04 05:40:00,60.6,20.5,29.79,NW,311,0.0,2.0,21,0.00,,,0.00,0,LWC V2.00 B727,2013-03-04 12:40:00,
2013-03-04 05:45:00,60.5,21.5,29.79,NW,311,0.0,2.0,22,0.00,,,0.00,0,LWC V2.00 B727,2013-03-04 12:45:00,
2013-03-04 05:50:00,60.5,20.4,29.79,NW,311,0.0,0.0,21,0.00,,,0.00,0,LWC V2.00 B727,2013-03-04 12:50:00,
2013-03-04 05:55:00,60.2,21.2,29.79,NW,311,0.0,0.0,22,0.00,,,0.00,0,LWC V2.00 B727,2013-03-04 12:55:00,
2013-03-04 06:00:00,60.0,21.1,29.79,NW,311,0.0,0.0,22,0.00,,,0.00,0,LWC V2.00 B727,2013-03-04 13:00:00,
2013-03-04 06:05:00,60.5,19.2,29.79,NW,311,0.0,2.0,20,0.00,,,0.00,0,LWC V2.00 B727,2013-03-04 13:05:00,
2013-03-04 06:10:00,60.9,19.6,29.80,WNW,290,0.0,2.0,20,0.00,,,0.00,0,LWC V2.00 B727,2013-03-04 13:10:00,
2013-03-04 06:25:00,61.0,18.5,29.80,WNW,290,0.0,1.0,19,0.00,,,0.00,0,LWC V2.00 B727,2013-03-04 13:25:00,
2013-03-04 06:30:00,60.8,19.5,29.80,WNW,290,2.0,3.0,20,0.00,,,0.00,0,LWC V2.00 B727,2013-03-04 13:30:00,
2013-03-04 06:35:00,60.8,18.3,29.81,WNW,290,2.0,3.0,19,0.00,,,0.00,0,LWC V2.00 B727,2013-03-04 13:35:00,
2013-03-04 06:40:00,61.1,17.3,29.81,SSW,203,6.0,7.0,18,0.00,,,0.00,0,LWC V2.00 B727,2013-03-04 13:40:00,
2013-03-04 06:45:00,61.2,17.4,29.81,SW,222,0.0,1.0,18,0.00,,,0.00,0,LWC V2.00 B727,2013-03-04 13:45:00,
2013-03-04 06:50:00,60.6,19.3,29.81,SW,222,0.0,2.0,20,0.00,,,0.00,0,LWC V2.00 B727,2013-03-04 13:50:00,
2013-03-04 06:55:00,59.6,20.7,29.81,SE,128,0.0,2.0,22,0.00,,,0.00,9,LWC V2.00 B727,2013-03-04 13:55:00,
2013-03-04 07:00:00,58.6,20.9,29.81,SE,128,0.0,0.0,23,0.00,,,0.00,16,LWC V2.00 B727,2013-03-04 14:00:00,
2013-03-04 07:05:00,58.1,20.5,29.81,SE,128,0.0,2.0,23,0.00,,,0.00,25,LWC V2.00 B727,2013-03-04 14:05:00,
2013-03-04 07:10:00,58.3,20.7,29.81,SE,128,0.0,2.0,23,0.00,,,0.00,33,LWC V2.00 B727,2013-03-04 14:10:00,
2013-03-04 07:15:00,58.3,20.7,29.81,SE,128,0.0,3.0,23,0.00,,,0.00,44,LWC V2.00 B727,2013-03-04 14:15:00,
2013-03-04 07:20:00,58.8,19.0,29.81,South,169,0.0,1.0,21,0.00,,,0.00,49,LWC V2.00 B727,2013-03-04 14:20:00,
2013-03-04 07:25:00,59.4,18.3,29.81,South,169,2.0,4.0,20,0.00,,,0.00,51,LWC V2.00 B727,2013-03-04 14:25:00,
2013-03-04 07:30:00,59.8,17.5,29.82,SSE,163,2.0,4.0,19,0.00,,,0.00,51,LWC V2.00 B727,2013-03-04 14:30:00,
2013-03-04 07:35:00,60.1,17.7,29.82,South,169,0.0,3.0,19,0.00,,,0.00,77,LWC V2.00 B727,2013-03-04 14:35:00,
2013-03-04 07:40:00,60.3,17.9,29.82,SSE,160,1.0,2.0,19,0.00,,,0.00,192,LWC V2.00 B727,2013-03-04 14:40:00,
2013-03-04 07:45:00,60.9,17.1,29.82,SSW,207,3.0,5.0,18,0.00,,,0.00,144,LWC V2.00 B727,2013-03-04 14:45:00,
2013-03-04 07:50:00,61.0,17.2,29.82,SSW,207,2.0,3.0,18,0.00,,,0.00,123,LWC V2.00 B727,2013-03-04 14:50:00,
2013-03-04 07:55:00,60.7,18.2,29.83,SSW,207,4.0,5.0,19,0.00,,,0.00,123,LWC V2.00 B727,2013-03-04 14:55:00,
2013-03-04 08:00:00,60.6,19.3,29.83,SW,215,1.0,4.0,20,0.00,,,0.00,223,LWC V2.00 B727,2013-03-04 15:00:00,
2013-03-04 08:05:00,60.9,18.4,29.83,SSW,208,5.0,6.0,19,0.00,,,0.00,251,LWC V2.00 B727,2013-03-04 15:05:00,
2013-03-04 08:10:00,61.0,18.5,29.83,SW,219,3.0,5.0,19,0.00,,,0.00,265,LWC V2.00 B727,2013-03-04 15:10:00,
2013-03-04 08:15:00,61.2,17.4,29.83,SSW,210,3.0,8.0,18,0.00,,,0.00,257,LWC V2.00 B727,2013-03-04 15:15:00,
2013-03-04 08:20:00,61.3,18.7,29.83,SW,218,6.0,8.0,19,0.00,,,0.00,287,LWC V2.00 B727,2013-03-04 15:20:00,
2013-03-04 08:25:00,61.2,18.6,29.83,SSW,192,0.0,6.0,19,0.00,,,0.00,318,LWC V2.00 B727,2013-03-04 15:25:00,
2013-03-04 08:30:00,61.2,19.8,29.83,SSW,192,1.0,8.0,20,0.00,,,0.00,295,LWC V2.00 B727,2013-03-04 15:30:00,
2013-03-04 08:35:00,61.3,19.9,29.83,SSW,193,6.0,7.0,20,0.00,,,0.00,338,LWC V2.00 B727,2013-03-04 15:35:00,
2013-03-04 08:40:00,61.4,20.0,29.83,SSW,211,7.0,7.0,20,0.00,,,0.00,359,LWC V2.00 B727,2013-03-04 15:40:00,
2013-03-04 08:45:00,61.6,20.1,29.83,SSW,211,4.0,8.0,20,0.00,,,0.00,388,LWC V2.00 B727,2013-03-04 15:45:00,
2013-03-04 08:50:00,61.6,19.0,29.83,SSW,200,4.0,7.0,19,0.00,,,0.00,415,LWC V2.00 B727,2013-03-04 15:50:00,
2013-03-04 08:55:00,61.9,20.4,29.83,SW,215,5.0,7.0,20,0.00,,,0.00,422,LWC V2.00 B727,2013-03-04 15:55:00,
2013-03-04 09:00:00,62.2,20.6,29.83,SSW,206,1.0,4.0,20,0.00,,,0.00,439,LWC V2.00 B727,2013-03-04 16:00:00,
2013-03-04 09:05:00,62.3,20.7,29.84,SSW,198,5.0,6.0,20,0.00,,,0.00,404,LWC V2.00 B727,2013-03-04 16:05:00,
2013-03-04 09:10:00,62.3,20.7,29.84,SSW,203,4.0,7.0,20,0.00,,,0.00,413,LWC V2.00 B727,2013-03-04 16:10:00,
2013-03-04 09:15:00,62.6,22.1,29.84,SW,225,0.0,7.0,21,0.00,,,0.00,485,LWC V2.00 B727,2013-03-04 16:15:00,
2013-03-04 09:20:00,63.0,22.5,29.84,SW,236,3.0,4.0,21,0.00,,,0.00,510,LWC V2.00 B727,2013-03-04 16:20:00,
2013-03-04 09:25:00,62.7,21.1,29.84,SW,216,1.0,6.0,20,0.00,,,0.00,483,LWC V2.00 B727,2013-03-04 16:25:00,
2013-03-04 09:30:00,62.7,22.2,29.84,WSW,242,5.0,7.0,21,0.00,,,0.00,512,LWC V2.00 B727,2013-03-04 16:30:00,
2013-03-04 09:35:00,63.0,24.6,29.84,SSW,211,6.0,8.0,23,0.00,,,0.00,541,LWC V2.00 B727,2013-03-04 16:35:00,
2013-03-04 09:40:00,63.4,25.0,29.84,SSW,202,8.0,8.0,23,0.00,,,0.00,552,LWC V2.00 B727,2013-03-04 16:40:00,
2013-03-04 09:45:00,63.2,24.8,29.84,SW,229,4.0,9.0,23,0.00,,,0.00,570,LWC V2.00 B727,2013-03-04 16:45:00,
2013-03-04 09:50:00,63.4,25.0,29.84,SSW,199,2.0,8.0,23,0.00,,,0.00,568,LWC V2.00 B727,2013-03-04 16:50:00,
2013-03-04 09:55:00,63.3,27.8,29.84,SSW,207,7.0,7.0,26,0.00,,,0.00,585,LWC V2.00 B727,2013-03-04 16:55:00,
2013-03-04 10:00:00,63.4,29.7,29.84,SW,221,5.0,7.0,28,0.00,,,0.00,598,LWC V2.00 B727,2013-03-04 17:00:00,
2013-03-04 10:05:00,63.6,30.8,29.84,SSW,207,3.0,5.0,29,0.00,,,0.00,610,LWC V2.00 B727,2013-03-04 17:05:00,
2013-03-04 10:10:00,64.2,31.3,29.84,SW,227,5.0,8.0,29,0.00,,,0.00,629,LWC V2.00 B727,2013-03-04 17:10:00,
2013-03-04 10:15:00,64.0,31.9,29.84,SSW,212,5.0,9.0,30,0.00,,,0.00,643,LWC V2.00 B727,2013-03-04 17:15:00,
2013-03-04 10:20:00,64.2,32.1,29.84,SSW,206,7.0,7.0,30,0.00,,,0.00,656,LWC V2.00 B727,2013-03-04 17:20:00,
2013-03-04 10:25:00,65.0,32.0,29.83,SSW,211,3.0,7.0,29,0.00,,,0.00,666,LWC V2.00 B727,2013-03-04 17:25:00,
2013-03-04 10:30:00,64.7,32.5,29.83,SW,225,6.0,7.0,30,0.00,,,0.00,675,LWC V2.00 B727,2013-03-04 17:30:00,
2013-03-04 10:35:00,65.0,32.8,29.83,SSW,211,6.0,7.0,30,0.00,,,0.00,686,LWC V2.00 B727,2013-03-04 17:35:00,
2013-03-04 10:40:00,65.1,32.1,29.83,SSW,206,5.0,9.0,29,0.00,,,0.00,680,LWC V2.00 B727,2013-03-04 17:40:00,
2013-03-04 10:45:00,64.9,32.7,29.83,SSW,196,5.0,7.0,30,0.00,,,0.00,696,LWC V2.00 B727,2013-03-04 17:45:00,
2013-03-04 10:50:00,65.2,32.1,29.83,SSW,211,4.0,13.0,29,0.00,,,0.00,707,LWC V2.00 B727,2013-03-04 17:50:00,
2013-03-04 10:55:00,64.9,31.9,29.84,SSW,212,3.0,10.0,29,0.00,,,0.00,708,LWC V2.00 B727,2013-03-04 17:55:00,
2013-03-04 11:00:00,65.5,32.4,29.83,WSW,240,6.0,12.0,29,0.00,,,0.00,738,LWC V2.00 B727,2013-03-04 18:00:00,
2013-03-04 11:05:00,65.9,31.9,29.83,SW,232,4.0,9.0,28,0.00,,,0.00,735,LWC V2.00 B727,2013-03-04 18:05:00,
2013-03-04 11:10:00,66.2,32.1,29.83,WSW,240,3.0,13.0,28,0.00,,,0.00,754,LWC V2.00 B727,2013-03-04 18:10:00,
2013-03-04 11:15:00,66.6,30.6,29.83,WSW,252,5.0,11.0,26,0.00,,,0.00,765,LWC V2.00 B727,2013-03-04 18:15:00,
2013-03-04 11:20:00,66.5,31.5,29.84,WSW,249,4.0,6.0,27,0.00,,,0.00,777,LWC V2.00 B727,2013-03-04 18:20:00,
2013-03-04 11:25:00,66.5,32.4,29.84,SW,223,6.0,11.0,28,0.00,,,0.00,780,LWC V2.00 B727,2013-03-04 18:25:00,
2013-03-04 11:29:00,66.5,32.4,29.84,SW,223,5.0,11.0,28,0.00,,,0.00,773,LWC V2.00 B727,2013-03-04 18:29:00,
2013-03-04 11:34:00,67.0,31.0,29.84,WSW,255,1.0,6.0,26,0.00,,,0.00,791,LWC V2.00 B727,2013-03-04 18:34:00,
2013-03-04 11:39:00,67.1,31.1,29.84,SSW,213,7.0,12.0,26,0.00,,,0.00,800,LWC V2.00 B727,2013-03-04 18:39:00,
2013-03-04 11:44:00,67.1,32.0,29.83,SSW,202,4.0,8.0,27,0.00,,,0.00,807,LWC V2.00 B727,2013-03-04 18:44:00,
2013-03-04 11:49:00,67.6,31.5,29.83,SW,218,11.0,15.0,26,0.00,,,0.00,800,LWC V2.00 B727,2013-03-04 18:49:00,
2013-03-04 11:54:00,67.1,31.1,29.83,SSW,196,7.0,8.0,26,0.00,,,0.00,814,LWC V2.00 B727,2013-03-04 18:54:00,
2013-03-04 11:59:00,67.1,32.0,29.83,West,262,5.0,12.0,27,0.00,,,0.00,817,LWC V2.00 B727,2013-03-04 18:59:00,
2013-03-04 12:04:00,68.0,31.8,29.83,NW,317,7.0,7.0,26,0.00,,,0.00,821,LWC V2.00 B727,2013-03-04 19:04:00,
2013-03-04 12:09:00,68.1,31.9,29.83,SW,221,5.0,13.0,26,0.00,,,0.00,824,LWC V2.00 B727,2013-03-04 19:09:00,
2013-03-04 12:14:00,68.1,31.9,29.83,SW,229,12.0,13.0,26,0.00,,,0.00,826,LWC V2.00 B727,2013-03-04 19:14:00,
2013-03-04 12:19:00,68.1,31.9,29.83,WSW,255,2.0,5.0,26,0.00,,,0.00,831,LWC V2.00 B727,2013-03-04 19:19:00,
2013-03-04 12:24:00,68.5,33.2,29.83,West,267,4.0,13.0,27,0.00,,,0.00,831,LWC V2.00 B727,2013-03-04 19:24:00,
2013-03-04 12:29:00,68.7,31.5,29.83,SSW,211,4.0,11.0,25,0.00,,,0.00,830,LWC V2.00 B727,2013-03-04 19:29:00,
2013-03-04 12:34:00,68.5,32.3,29.83,West,260,9.0,11.0,26,0.00,,,0.00,830,LWC V2.00 B727,2013-03-04 19:34:00,
2013-03-04 12:39:00,69.0,32.7,29.83,West,259,4.0,9.0,26,0.00,,,0.00,831,LWC V2.00 B727,2013-03-04 19:39:00,
2013-03-04 12:44:00,69.2,32.9,29.83,SSW,209,8.0,12.0,26,0.00,,,0.00,828,LWC V2.00 B727,2013-03-04 19:44:00,
2013-03-04 12:49:00,69.4,33.0,29.82,SSW,210,4.0,6.0,26,0.00,,,0.00,826,LWC V2.00 B727,2013-03-04 19:49:00,
2013-03-04 12:54:00,68.7,31.5,29.82,WSW,247,7.0,10.0,25,0.00,,,0.00,828,LWC V2.00 B727,2013-03-04 19:54:00,
2013-03-04 12:59:00,67.7,31.6,29.82,SW,222,6.0,6.0,26,0.00,,,0.00,826,LWC V2.00 B727,2013-03-04 19:59:00,
2013-03-04 13:04:00,68.7,31.5,29.82,SSW,212,8.0,16.0,25,0.00,,,0.00,823,LWC V2.00 B727,2013-03-04 20:04:00,
2013-03-04 13:09:00,68.4,32.2,29.83,SW,230,5.0,9.0,26,0.00,,,0.00,821,LWC V2.00 B727,2013-03-04 20:09:00,
2013-03-04 13:14:00,68.7,32.4,29.82,WSW,254,3.0,7.0,26,0.00,,,0.00,814,LWC V2.00 B727,2013-03-04 20:14:00,
2013-03-04 13:19:00,69.3,32.0,29.83,WSW,256,4.0,10.0,25,0.00,,,0.00,814,LWC V2.00 B727,2013-03-04 20:19:00,
2013-03-04 13:24:00,69.4,32.0,29.82,SW,214,5.0,11.0,25,0.00,,,0.00,809,LWC V2.00 B727,2013-03-04 20:24:00,
2013-03-04 13:29:00,68.7,31.5,29.82,SW,236,7.0,13.0,25,0.00,,,0.00,807,LWC V2.00 B727,2013-03-04 20:29:00,
2013-03-04 13:34:00,69.1,30.8,29.83,SW,231,8.0,17.0,24,0.00,,,0.00,800,LWC V2.00 B727,2013-03-04 20:34:00,
2013-03-04 13:39:00,69.2,30.9,29.83,SW,231,7.0,9.0,24,0.00,,,0.00,846,LWC V2.00 B727,2013-03-04 20:39:00,
2013-03-04 13:44:00,68.4,31.2,29.83,WSW,248,2.0,4.0,25,0.00,,,0.00,789,LWC V2.00 B727,2013-03-04 20:44:00,
2013-03-04 13:49:00,69.9,30.4,29.82,SW,223,6.0,10.0,23,0.00,,,0.00,788,LWC V2.00 B727,2013-03-04 20:49:00,
2013-03-04 13:54:00,70.3,28.5,29.83,West,265,10.0,17.0,21,0.00,,,0.00,782,LWC V2.00 B727,2013-03-04 20:54:00,
2013-03-04 13:59:00,69.6,29.1,29.82,WSW,237,12.0,16.0,22,0.00,,,0.00,772,LWC V2.00 B727,2013-03-04 20:59:00,
2013-03-04 14:04:00,69.9,29.3,29.82,SW,235,9.0,9.0,22,0.00,,,0.00,763,LWC V2.00 B727,2013-03-04 21:04:00,
2013-03-04 14:09:00,69.7,30.2,29.82,South,187,7.0,11.0,23,0.00,,,0.00,752,LWC V2.00 B727,2013-03-04 21:09:00,
2013-03-04 14:14:00,70.1,28.4,29.82,SW,229,9.0,12.0,21,0.00,,,0.00,751,LWC V2.00 B727,2013-03-04 21:14:00,
2013-03-04 14:19:00,69.7,28.0,29.82,WSW,247,4.0,15.0,21,0.00,,,0.00,742,LWC V2.00 B727,2013-03-04 21:19:00,
2013-03-04 14:24:00,69.7,28.0,29.82,SW,215,8.0,17.0,21,0.00,,,0.00,731,LWC V2.00 B727,2013-03-04 21:24:00,
2013-03-04 14:29:00,69.5,29.0,29.82,WSW,251,8.0,11.0,22,0.00,,,0.00,724,LWC V2.00 B727,2013-03-04 21:29:00,
2013-03-04 14:34:00,69.5,27.9,29.82,SW,215,9.0,18.0,21,0.00,,,0.00,712,LWC V2.00 B727,2013-03-04 21:34:00,
2013-03-04 14:39:00,69.4,27.8,29.83,SW,218,5.0,9.0,21,0.00,,,0.00,701,LWC V2.00 B727,2013-03-04 21:39:00,
2013-03-04 14:44:00,69.9,28.2,29.82,West,262,6.0,11.0,21,0.00,,,0.00,691,LWC V2.00 B727,2013-03-04 21:44:00,
2013-03-04 14:49:00,69.9,27.0,29.83,WSW,243,3.0,10.0,20,0.00,,,0.00,677,LWC V2.00 B727,2013-03-04 21:49:00,
2013-03-04 14:54:00,70.2,28.4,29.83,West,262,5.0,7.0,21,0.00,,,0.00,664,LWC V2.00 B727,2013-03-04 21:54:00,
2013-03-04 14:59:00,70.2,28.4,29.83,West,277,1.0,6.0,21,0.00,,,0.00,652,LWC V2.00 B727,2013-03-04 21:59:00,
2013-03-04 15:04:00,70.3,28.5,29.83,SSW,213,8.0,10.0,21,0.00,,,0.00,642,LWC V2.00 B727,2013-03-04 22:04:00,
2013-03-04 15:09:00,70.4,29.7,29.83,SW,232,6.0,11.0,22,0.00,,,0.00,626,LWC V2.00 B727,2013-03-04 22:09:00,
2013-03-04 15:14:00,69.7,30.2,29.83,WSW,252,0.0,10.0,23,0.00,,,0.00,619,LWC V2.00 B727,2013-03-04 22:14:00,
2013-03-04 15:19:00,69.9,29.3,29.83,West,264,5.0,8.0,22,0.00,,,0.00,605,LWC V2.00 B727,2013-03-04 22:19:00,
2013-03-04 15:24:00,70.0,30.5,29.83,NNW,345,0.0,11.0,23,0.00,,,0.00,589,LWC V2.00 B727,2013-03-04 22:24:00,
2013-03-04 15:29:00,69.6,30.2,29.83,SW,232,10.0,18.0,23,0.00,,,0.00,575,LWC V2.00 B727,2013-03-04 22:29:00,
2013-03-04 15:34:00,69.9,30.4,29.84,SW,231,4.0,9.0,23,0.00,,,0.00,555,LWC V2.00 B727,2013-03-04 22:34:00,
2013-03-04 15:39:00,69.4,31.0,29.84,WSW,245,2.0,7.0,24,0.00,,,0.00,536,LWC V2.00 B727,2013-03-04 22:39:00,
2013-03-04 15:44:00,69.6,30.2,29.83,WSW,250,2.0,6.0,23,0.00,,,0.00,520,LWC V2.00 B727,2013-03-04 22:44:00,
2013-03-04 15:49:00,69.3,29.9,29.83,West,261,6.0,6.0,23,0.00,,,0.00,506,LWC V2.00 B727,2013-03-04 22:49:00,
2013-03-04 15:54:00,69.7,31.3,29.83,WNW,286,5.0,9.0,24,0.00,,,0.00,489,LWC V2.00 B727,2013-03-04 22:54:00,
2013-03-04 15:59:00,69.0,30.7,29.83,WSW,240,7.0,8.0,24,0.00,,,0.00,471,LWC V2.00 B727,2013-03-04 22:59:00,
2013-03-04 16:04:00,68.8,29.5,29.84,West,263,0.0,7.0,23,0.00,,,0.00,455,LWC V2.00 B727,2013-03-04 23:04:00,
2013-03-04 16:09:00,69.4,31.0,29.84,WSW,254,3.0,4.0,24,0.00,,,0.00,438,LWC V2.00 B727,2013-03-04 23:09:00,
2013-03-04 16:14:00,68.9,29.6,29.84,WSW,258,1.0,11.0,23,0.00,,,0.00,422,LWC V2.00 B727,2013-03-04 23:14:00,
2013-03-04 16:19:00,67.9,30.8,29.84,WSW,240,3.0,5.0,25,0.00,,,0.00,403,LWC V2.00 B727,2013-03-04 23:19:00,
2013-03-04 16:24:00,68.7,30.4,29.84,WNW,302,5.0,8.0,24,0.00,,,0.00,383,LWC V2.00 B727,2013-03-04 23:24:00,
2013-03-04 16:29:00,67.9,29.8,29.84,WSW,244,0.0,6.0,24,0.00,,,0.00,348,LWC V2.00 B727,2013-03-04 23:29:00,
2013-03-04 16:34:00,67.7,30.6,29.85,SW,236,4.0,8.0,25,0.00,,,0.00,346,LWC V2.00 B727,2013-03-04 23:34:00,
2013-03-04 16:39:00,68.1,30.9,29.85,WNW,301,0.0,5.0,25,0.00,,,0.00,332,LWC V2.00 B727,2013-03-04 23:39:00,
2013-03-04 16:44:00,67.7,31.6,29.85,NNW,348,0.0,4.0,26,0.00,,,0.00,295,LWC V2.00 B727,2013-03-04 23:44:00,
2013-03-04 16:49:00,67.9,30.8,29.85,West,263,0.0,7.0,25,0.00,,,0.00,269,LWC V2.00 B727,2013-03-04 23:49:00,
2013-03-04 16:54:00,68.2,31.0,29.84,WSW,238,1.0,7.0,25,0.00,,,0.00,209,LWC V2.00 B727,2013-03-04 23:54:00,
2013-03-04 16:59:00,67.1,31.1,29.85,NW,309,1.0,8.0,26,0.00,,,0.00,123,LWC V2.00 B727,2013-03-04 23:59:00,
2013-03-04 17:04:00,66.3,31.3,29.84,WNW,292,4.0,5.0,27,0.00,,,0.00,236,LWC V2.00 B727,2013-03-05 00:04:00,
2013-03-04 17:09:00,66.7,31.7,29.85,NW,311,5.0,6.0,27,0.00,,,0.00,211,LWC V2.00 B727,2013-03-05 00:09:00,
2013-03-04 17:14:00,66.5,31.5,29.84,WNW,301,0.0,5.0,27,0.00,,,0.00,193,LWC V2.00 B727,2013-03-05 00:14:00,
2013-03-04 17:19:00,66.5,31.5,29.85,West,265,0.0,1.0,27,0.00,,,0.00,146,LWC V2.00 B727,2013-03-05 00:19:00,
2013-03-04 17:24:00,66.3,31.3,29.85,WNW,286,4.0,4.0,27,0.00,,,0.00,148,LWC V2.00 B727,2013-03-05 00:24:00,
2013-03-04 17:29:00,66.0,31.1,29.85,WNW,302,0.0,1.0,27,0.00,,,0.00,137,LWC V2.00 B727,2013-03-05 00:29:00,
2013-03-04 17:34:00,65.8,30.9,29.85,WNW,294,2.0,3.0,27,0.00,,,0.00,113,LWC V2.00 B727,2013-03-05 00:34:00,
2013-03-04 17:39:00,66.0,31.1,29.85,West,279,0.0,4.0,27,0.00,,,0.00,91,LWC V2.00 B727,2013-03-05 00:39:00,
2013-03-04 17:44:00,65.9,31.0,29.85,WNW,291,0.0,3.0,27,0.00,,,0.00,74,LWC V2.00 B727,2013-03-05 00:44:00,
2013-03-04 17:49:00,65.3,30.5,29.85,WSW,246,4.0,6.0,27,0.00,,,0.00,54,LWC V2.00 B727,2013-03-05 00:49:00,
2013-03-04 17:54:00,65.5,30.6,29.86,West,276,3.0,3.0,27,0.00,,,0.00,44,LWC V2.00 B727,2013-03-05 00:54:00,
2013-03-04 17:59:00,65.2,30.4,29.86,WNW,293,0.0,2.0,27,0.00,,,0.00,39,LWC V2.00 B727,2013-03-05 00:59:00,
2013-03-04 18:04:00,64.7,31.7,29.87,WNW,292,4.0,4.0,29,0.00,,,0.00,33,LWC V2.00 B727,2013-03-05 01:04:00,
2013-03-04 18:09:00,64.1,31.2,29.87,WNW,296,3.0,5.0,29,0.00,,,0.00,21,LWC V2.00 B727,2013-03-05 01:09:00,
2013-03-04 18:14:00,63.7,31.7,29.87,WNW,286,0.0,2.0,30,0.00,,,0.00,14,LWC V2.00 B727,2013-03-05 01:14:00,
2013-03-04 18:19:00,63.2,31.3,29.87,WNW,298,3.0,3.0,30,0.00,,,0.00,11,LWC V2.00 B727,2013-03-05 01:19:00,
2013-03-04 18:24:00,62.8,31.7,29.87,WNW,291,1.0,2.0,31,0.00,,,0.00,5,LWC V2.00 B727,2013-03-05 01:24:00,
2013-03-04 18:29:00,62.3,32.1,29.87,WNW,291,0.0,0.0,32,0.00,,,0.00,0,LWC V2.00 B727,2013-03-05 01:29:00,
2013-03-04 18:34:00,61.5,32.1,29.88,WNW,291,0.0,1.0,33,0.00,,,0.00,0,LWC V2.00 B727,2013-03-05 01:34:00,
2013-03-04 18:39:00,60.6,32.1,29.88,WNW,295,0.0,2.0,34,0.00,,,0.00,0,LWC V2.00 B727,2013-03-05 01:39:00,
2013-03-04 18:44:00,60.1,32.4,29.88,NW,304,1.0,3.0,35,0.00,,,0.00,0,LWC V2.00 B727,2013-03-05 01:44:00,
2013-03-04 18:49:00,59.9,32.2,29.88,NNW,338,2.0,2.0,35,0.00,,,0.00,0,LWC V2.00 B727,2013-03-05 01:49:00,
2013-03-04 18:54:00,59.7,32.0,29.89,North,351,2.0,4.0,35,0.00,,,0.00,0,LWC V2.00 B727,2013-03-05 01:54:00,
2013-03-04 18:59:00,59.4,31.7,29.89,North,351,0.0,1.0,35,0.00,,,0.00,0,LWC V2.00 B727,2013-03-05 01:59:00,
2013-03-04 19:04:00,59.0,32.1,29.90,North,351,2.0,3.0,36,0.00,,,0.00,0,LWC V2.00 B727,2013-03-05 02:04:00,
2013-03-04 19:09:00,58.9,32.0,29.89,North,5,3.0,3.0,36,0.00,,,0.00,0,LWC V2.00 B727,2013-03-05 02:09:00,
2013-03-04 19:14:00,58.6,31.7,29.90,NE,38,3.0,4.0,36,0.00,,,0.00,0,LWC V2.00 B727,2013-03-05 02:14:00,
2013-03-04 19:19:00,58.4,32.2,29.90,NNE,30,6.0,6.0,37,0.00,,,0.00,0,LWC V2.00 B727,2013-03-05 02:19:00,
2013-03-04 19:24:00,58.5,31.6,29.90,NNE,28,5.0,5.0,36,0.00,,,0.00,0,LWC V2.00 B727,2013-03-05 02:24:00,
2013-03-04 19:29:00,58.7,31.8,29.91,NNE,30,2.0,4.0,36,0.00,,,0.00,0,LWC V2.00 B727,2013-03-05 02:29:00,
2013-03-04 19:34:00,58.7,31.8,29.91,NE,45,4.0,6.0,36,0.00,,,0.00,0,LWC V2.00 B727,2013-03-05 02:34:00,
2013-03-04 19:39:00,58.4,31.6,29.91,NNE,33,4.0,5.0,36,0.00,,,0.00,0,LWC V2.00 B727,2013-03-05 02:39:00,
2013-03-04 19:44:00,58.1,32.0,29.91,NE,37,3.0,4.0,37,0.00,,,0.00,0,LWC V2.00 B727,2013-03-05 02:44:00,
2013-03-04 19:49:00,57.5,32.1,29.91,NE,40,0.0,4.0,38,0.00,,,0.00,0,LWC V2.00 B727,2013-03-05 02:49:00,
2013-03-04 19:54:00,57.0,31.6,29.92,NE,40,3.0,3.0,38,0.00,,,0.00,0,LWC V2.00 B727,2013-03-05 02:54:00,
2013-03-04 19:59:00,57.1,31.7,29.92,NE,40,0.0,2.0,38,0.00,,,0.00,0,LWC V2.00 B727,2013-03-05 02:59:00,
2013-03-04 20:04:00,57.1,31.7,29.92,NE,40,1.0,2.0,38,0.00,,,0.00,0,LWC V2.00 B727,2013-03-05 03:04:00,
2013-03-04 20:09:00,56.6,31.9,29.92,NE,40,0.0,3.0,39,0.00,,,0.00,0,LWC V2.00 B727,2013-03-05 03:09:00,
2013-03-04 20:14:00,56.5,31.8,29.93,NE,40,1.0,3.0,39,0.00,,,0.00,0,LWC V2.00 B727,2013-03-05 03:14:00,
2013-03-04 20:19:00,57.0,31.6,29.93,NE,40,0.0,2.0,38,0.00,,,0.00,0,LWC V2.00 B727,2013-03-05 03:19:00,
2013-03-04 20:24:00,56.9,31.6,29.93,NE,40,2.0,2.0,38,0.00,,,0.00,0,LWC V2.00 B727,2013-03-05 03:24:00,
2013-03-04 20:29:00,56.8,31.5,29.93,NE,40,0.0,0.0,38,0.00,,,0.00,0,LWC V2.00 B727,2013-03-05 03:29:00,
2013-03-04 20:34:00,57.2,31.2,29.93,NE,40,0.0,0.0,37,0.00,,,0.00,0,LWC V2.00 B727,2013-03-05 03:34:00,
2013-03-04 20:39:00,56.7,31.4,29.94,NE,40,0.0,2.0,38,0.00,,,0.00,0,LWC V2.00 B727,2013-03-05 03:39:00,
2013-03-04 20:44:00,56.3,31.7,29.94,NE,40,0.0,1.0,39,0.00,,,0.00,0,LWC V2.00 B727,2013-03-05 03:44:00,
2013-03-04 20:49:00,56.0,32.0,29.94,NE,40,3.0,4.0,40,0.00,,,0.00,0,LWC V2.00 B727,2013-03-05 03:49:00,
2013-03-04 20:54:00,56.0,32.0,29.95,NE,40,2.0,4.0,40,0.00,,,0.00,0,LWC V2.00 B727,2013-03-05 03:54:00,
2013-03-04 20:59:00,55.6,32.3,29.95,ENE,61,4.0,4.0,41,0.00,,,0.00,0,LWC V2.00 B727,2013-03-05 03:59:00,
2013-03-04 21:04:00,55.2,31.9,29.95,ENE,67,3.0,5.0,41,0.00,,,0.00,0,LWC V2.00 B727,2013-03-05 04:04:00,
2013-03-04 21:09:00,54.8,32.2,29.96,ENE,67,1.0,3.0,42,0.00,,,0.00,0,LWC V2.00 B727,2013-03-05 04:09:00,
2013-03-04 21:14:00,54.7,32.1,29.96,ENE,67,2.0,3.0,42,0.00,,,0.00,0,LWC V2.00 B727,2013-03-05 04:14:00,
2013-03-04 21:19:00,54.9,32.2,29.96,ENE,67,2.0,2.0,42,0.00,,,0.00,0,LWC V2.00 B727,2013-03-05 04:19:00,
2013-03-04 21:24:00,54.9,32.2,29.96,ENE,67,2.0,4.0,42,0.00,,,0.00,0,LWC V2.00 B727,2013-03-05 04:24:00,
2013-03-04 21:29:00,54.5,31.9,29.96,ENE,67,3.0,3.0,42,0.00,,,0.00,0,LWC V2.00 B727,2013-03-05 04:29:00,
2013-03-04 21:34:00,54.3,32.3,29.97,ENE,67,2.0,4.0,43,0.00,,,0.00,0,LWC V2.00 B727,2013-03-05 04:34:00,
2013-03-04 21:39:00,54.2,32.2,29.97,ENE,67,2.0,5.0,43,0.00,,,0.00,0,LWC V2.00 B727,2013-03-05 04:39:00,
2013-03-04 21:44:00,54.4,32.4,29.97,ENE,67,3.0,3.0,43,0.00,,,0.00,0,LWC V2.00 B727,2013-03-05 04:44:00,
2013-03-04 21:49:00,54.4,32.4,29.97,ENE,67,2.0,4.0,43,0.00,,,0.00,0,LWC V2.00 B727,2013-03-05 04:49:00,
2013-03-04 21:54:00,54.4,32.4,29.97,ENE,67,2.0,4.0,43,0.00,,,0.00,0,LWC V2.00 B727,2013-03-05 04:54:00,
2013-03-04 21:59:00,54.4,32.4,29.97,ENE,67,2.0,4.0,43,0.00,,,0.00,0,LWC V2.00 B727,2013-03-05 04:59:00,
2013-03-04 22:00:00,54.4,32.4,29.97,ENE,67,3.0,4.0,43,0.00,,,0.00,0,LWC V2.00 B727,2013-03-05 05:00:00,
2013-03-04 22:05:00,54.5,32.5,29.98,ENE,67,2.0,4.0,43,0.00,,,0.00,0,LWC V2.00 B727,2013-03-05 05:05:00,
2013-03-04 22:10:00,54.5,32.5,29.98,ENE,67,2.0,4.0,43,0.00,,,0.00,0,LWC V2.00 B727,2013-03-05 05:10:00,
2013-03-04 22:15:00,54.4,32.4,29.98,ENE,67,3.0,3.0,43,0.00,,,0.00,0,LWC V2.00 B727,2013-03-05 05:15:00,
2013-03-04 22:20:00,54.3,32.3,29.98,ENE,67,0.0,4.0,43,0.00,,,0.00,0,LWC V2.00 B727,2013-03-05 05:20:00,
2013-03-04 22:25:00,54.0,32.6,29.98,ENE,67,0.0,0.0,44,0.00,,,0.00,0,LWC V2.00 B727,2013-03-05 05:25:00,
2013-03-04 22:30:00,53.0,32.2,29.98,ENE,67,0.0,1.0,45,0.00,,,0.00,0,LWC V2.00 B727,2013-03-05 05:30:00,
2013-03-04 22:35:00,52.6,32.4,29.98,ENE,67,0.0,1.0,46,0.00,,,0.00,0,LWC V2.00 B727,2013-03-05 05:35:00,
2013-03-04 22:40:00,52.7,32.0,29.98,ENE,67,0.0,0.0,45,0.00,,,0.00,0,LWC V2.00 B727,2013-03-05 05:40:00,
2013-03-04 22:45:00,52.5,32.3,29.98,ENE,67,0.0,0.0,46,0.00,,,0.00,0,LWC V2.00 B727,2013-03-05 05:45:00,
2013-03-04 22:50:00,52.0,32.4,29.98,ENE,67,0.0,1.0,47,0.00,,,0.00,0,LWC V2.00 B727,2013-03-05 05:50:00,
2013-03-04 22:55:00,50.8,32.3,29.98,ENE,67,0.0,1.0,49,0.00,,,0.00,0,LWC V2.00 B727,2013-03-05 05:55:00,
2013-03-04 23:00:00,51.0,32.5,29.98,ENE,67,0.0,1.0,49,0.00,,,0.00,0,LWC V2.00 B727,2013-03-05 06:00:00,
2013-03-04 23:05:00,51.5,32.5,29.98,ENE,67,0.0,0.0,48,0.00,,,0.00,0,LWC V2.00 B727,2013-03-05 06:05:00,
2013-03-04 23:10:00,52.3,32.7,29.98,ENE,67,0.0,0.0,47,0.00,,,0.00,0,LWC V2.00 B727,2013-03-05 06:10:00,
2013-03-04 23:15:00,52.7,32.5,29.98,ENE,67,0.0,0.0,46,0.00,,,0.00,0,LWC V2.00 B727,2013-03-05 06:15:00,
2013-03-04 23:20:00,52.5,32.3,29.98,ENE,67,1.0,2.0,46,0.00,,,0.00,0,LWC V2.00 B727,2013-03-05 06:20:00,
2013-03-04 23:25:00,52.8,32.6,29.98,ENE,67,0.0,2.0,46,0.00,,,0.00,0,LWC V2.00 B727,2013-03-05 06:25:00,
2013-03-04 23:30:00,52.7,32.5,29.98,ENE,67,0.0,2.0,46,0.00,,,0.00,0,LWC V2.00 B727,2013-03-05 06:30:00,
2013-03-04 23:35:00,53.0,32.8,29.98,ENE,67,1.0,2.0,46,0.00,,,0.00,0,LWC V2.00 B727,2013-03-05 06:35:00,
2013-03-04 23:40:00,52.8,32.6,29.98,ENE,67,0.0,1.0,46,0.00,,,0.00,0,LWC V2.00 B727,2013-03-05 06:40:00,
2013-03-04 23:45:00,52.4,32.2,29.98,ENE,67,2.0,3.0,46,0.00,,,0.00,0,LWC V2.00 B727,2013-03-05 06:45:00,
2013-03-04 23:50:00,52.5,32.3,29.98,ENE,67,0.0,1.0,46,0.00,,,0.00,0,LWC V2.00 B727,2013-03-05 06:50:00,
2013-03-04 23:55:00,52.2,32.6,29.98,ENE,67,0.0,0.0,47,0.00,,,0.00,0,LWC V2.00 B727,2013-03-05 06:55:00,